When you browse on this site, cookies collect data to enhance your experience and personalize the content and advertising you see.
Visit our Privacy Policy to learn more. By continuing to use the site, you agree to this use of cookies and data.

Stündliche Wetter Browina

Heute, 9 Juli, Donnerstag

Zeit Temperatur Niederschläge Wind Luftdruck Luftfeuchtigkeit
00:00 +9°C° 0 mm 2 m/S 744 mmHg 93%
01:00 +10°C° 0 mm 1 m/S 745 mmHg 93%
02:00 +8°C° 0 mm 2 m/S 745 mmHg 93%
03:00 +8°C° 0 mm 2 m/S 745 mmHg 93%
04:00 +8°C° 0 mm 2 m/S 744 mmHg 93%
05:00 +10°C° 0 mm 2 m/S 745 mmHg 88%
06:00 +12°C° 0 mm 2 m/S 745 mmHg 84%
07:00 +13°C° 0 mm 3 m/S 746 mmHg 78%
08:00 +14°C° 0 mm 3 m/S 746 mmHg 73%
09:00 +17°C° 0 mm 3 m/S 746 mmHg 67%
10:00 +18°C° 0 mm 3 m/S 746 mmHg 62%
11:00 +19°C° 0.2 mm 4 m/S 746 mmHg 61%
12:00 +19°C° 0.2 mm 4 m/S 745 mmHg 61%
13:00 +20°C° 0.2 mm 4 m/S 745 mmHg 60%
14:00 +20°C° 0.2 mm 4 m/S 745 mmHg 62%
15:00 +20°C° 0.2 mm 4 m/S 744 mmHg 64%
16:00 +20°C° 0.2 mm 4 m/S 744 mmHg 66%
17:00 +18°C° 0.8 mm 4 m/S 743 mmHg 76%
18:00 +17°C° 0.8 mm 3 m/S 743 mmHg 85%
19:00 +14°C° 0.8 mm 3 m/S 742 mmHg 95%
20:00 +14°C° 0.5 mm 4 m/S 742 mmHg 95%
21:00 +14°C° 0.5 mm 5 m/S 742 mmHg 95%
22:00 +14°C° 0.5 mm 6 m/S 741 mmHg 95%
23:00 +14°C° 0.3 mm 5 m/S 741 mmHg 95%

Morgen, 10 Juli, Freitag

Zeit Temperatur Niederschläge Wind Luftdruck Luftfeuchtigkeit
00:00 +15°C° 0.3 mm 5 m/S 741 mmHg 96%
01:00 +15°C° 0.3 mm 5 m/S 740 mmHg 96%
02:00 +15°C° 0.1 mm 5 m/S 740 mmHg 96%
03:00 +15°C° 0.1 mm 5 m/S 740 mmHg 96%
04:00 +15°C° 0.1 mm 5 m/S 740 mmHg 96%
05:00 +16°C° 0 mm 5 m/S 740 mmHg 94%
06:00 +16°C° 0 mm 5 m/S 740 mmHg 92%
07:00 +16°C° 0 mm 5 m/S 740 mmHg 89%
08:00 +17°C° 0.1 mm 5 m/S 741 mmHg 86%
09:00 +19°C° 0.1 mm 5 m/S 741 mmHg 83%
10:00 +19°C° 0.1 mm 4 m/S 741 mmHg 80%
11:00 +20°C° 0.1 mm 4 m/S 741 mmHg 77%
12:00 +21°C° 0.1 mm 4 m/S 741 mmHg 74%
13:00 +22°C° 0.1 mm 4 m/S 741 mmHg 72%
14:00 +22°C° 0.1 mm 4 m/S 741 mmHg 72%
15:00 +22°C° 0.1 mm 3 m/S 740 mmHg 73%
16:00 +22°C° 0.1 mm 3 m/S 740 mmHg 73%
17:00 +21°C° 0.9 mm 3 m/S 740 mmHg 79%
18:00 +21°C° 0.9 mm 4 m/S 739 mmHg 84%
19:00 +20°C° 0.9 mm 4 m/S 739 mmHg 89%
20:00 +20°C° 0.2 mm 4 m/S 739 mmHg 91%
21:00 +19°C° 0.2 mm 4 m/S 740 mmHg 92%
22:00 +18°C° 0.2 mm 4 m/S 740 mmHg 94%
23:00 +17°C° 0 mm 4 m/S 741 mmHg 95%

übermorgen, 11 Juli, Samstag

Zeit Temperatur Niederschläge Wind Luftdruck Luftfeuchtigkeit
00:00 +17°C° 0 mm 4 m/S 741 mmHg 96%
01:00 +15°C° 0 mm 4 m/S 742 mmHg 96%
02:00 +14°C° 0 mm 4 m/S 742 mmHg 96%
03:00 +13°C° 0 mm 4 m/S 743 mmHg 95%
04:00 +12°C° 0 mm 4 m/S 744 mmHg 95%
05:00 +13°C° 0 mm 3 m/S 744 mmHg 91%
06:00 +13°C° 0 mm 3 m/S 745 mmHg 87%
07:00 +14°C° 0 mm 3 m/S 745 mmHg 84%
08:00 +14°C° 0 mm 3 m/S 746 mmHg 79%
09:00 +16°C° 0 mm 3 m/S 747 mmHg 74%
10:00 +17°C° 0 mm 3 m/S 747 mmHg 69%
11:00 +17°C° 0.1 mm 3 m/S 748 mmHg 68%
12:00 +17°C° 0.1 mm 2 m/S 748 mmHg 66%
13:00 +17°C° 0.1 mm 2 m/S 748 mmHg 65%
14:00 +17°C° 0.1 mm 2 m/S 748 mmHg 65%
15:00 +17°C° 0.1 mm 2 m/S 748 mmHg 66%
16:00 +17°C° 0.1 mm 3 m/S 748 mmHg 66%
17:00 +17°C° 0.1 mm 2 m/S 748 mmHg 71%
18:00 +16°C° 0.1 mm 2 m/S 748 mmHg 77%
19:00 +15°C° 0.1 mm 2 m/S 748 mmHg 82%
20:00 +14°C° 0 mm 2 m/S 749 mmHg 83%
21:00 +13°C° 0 mm 1 m/S 749 mmHg 85%
22:00 +13°C° 0 mm 1 m/S 749 mmHg 86%
23:00 +12°C° 0 mm 1 m/S 749 mmHg 87%

12 Juli, Sonntag

Zeit Temperatur Niederschläge Wind Luftdruck Luftfeuchtigkeit
00:00 +12°C° 0 mm 1 m/S 749 mmHg 88%
01:00 +11°C° 0 mm 1 m/S 749 mmHg 89%
02:00 +11°C° 0 mm 1 m/S 749 mmHg 88%
03:00 +11°C° 0 mm 1 m/S 749 mmHg 88%
04:00 +9°C° 0 mm 2 m/S 749 mmHg 87%
05:00 +12°C° 0 mm 2 m/S 749 mmHg 83%
06:00 +13°C° 0 mm 2 m/S 749 mmHg 78%
07:00 +13°C° 0 mm 3 m/S 749 mmHg 74%
08:00 +14°C° 0 mm 3 m/S 749 mmHg 69%
09:00 +16°C° 0 mm 3 m/S 749 mmHg 64%
10:00 +17°C° 0 mm 3 m/S 749 mmHg 59%
11:00 +17°C° 0.1 mm 3 m/S 749 mmHg 59%
12:00 +18°C° 0.1 mm 3 m/S 749 mmHg 60%
13:00 +18°C° 0.1 mm 3 m/S 749 mmHg 60%
14:00 +18°C° 0.2 mm 3 m/S 749 mmHg 62%
15:00 +18°C° 0.2 mm 3 m/S 749 mmHg 63%
16:00 +17°C° 0.2 mm 3 m/S 749 mmHg 64%
17:00 +16°C° 0.2 mm 2 m/S 749 mmHg 71%
18:00 +15°C° 0.2 mm 2 m/S 749 mmHg 78%
19:00 +14°C° 0.2 mm 2 m/S 749 mmHg 85%
20:00 +13°C° 0 mm 1 m/S 749 mmHg 87%
21:00 +12°C° 0 mm 1 m/S 749 mmHg 89%
22:00 +11°C° 0 mm 1 m/S 749 mmHg 92%
23:00 +11°C° 0 mm 1 m/S 749 mmHg 92%

13 Juli, Montag

Zeit Temperatur Niederschläge Wind Luftdruck Luftfeuchtigkeit
00:00 +11°C° 0 mm 1 m/S 749 mmHg 93%
01:00 +10°C° 0 mm 1 m/S 748 mmHg 93%
02:00 +10°C° 0 mm 1 m/S 748 mmHg 93%
03:00 +9°C° 0 mm 2 m/S 748 mmHg 94%
04:00 +8°C° 0 mm 2 m/S 747 mmHg 94%
05:00 +10°C° 0 mm 2 m/S 747 mmHg 91%
06:00 +12°C° 0 mm 2 m/S 747 mmHg 89%
07:00 +14°C° 0 mm 2 m/S 747 mmHg 86%
08:00 +15°C° 0 mm 2 m/S 747 mmHg 78%
09:00 +17°C° 0 mm 3 m/S 747 mmHg 71%
10:00 +19°C° 0 mm 3 m/S 747 mmHg 63%
11:00 +19°C° 0.1 mm 3 m/S 747 mmHg 60%
12:00 +20°C° 0.1 mm 4 m/S 746 mmHg 57%
13:00 +21°C° 0.1 mm 4 m/S 746 mmHg 54%
14:00 +21°C° 0.1 mm 5 m/S 746 mmHg 56%
15:00 +20°C° 0.1 mm 5 m/S 746 mmHg 57%
16:00 +20°C° 0.1 mm 6 m/S 746 mmHg 59%
17:00 +19°C° 0 mm 5 m/S 746 mmHg 64%
18:00 +17°C° 0 mm 4 m/S 745 mmHg 69%
19:00 +16°C° 0 mm 3 m/S 745 mmHg 75%
20:00 +14°C° 0 mm 3 m/S 745 mmHg 81%
21:00 +12°C° 0 mm 3 m/S 746 mmHg 87%
22:00 +12°C° 0 mm 2 m/S 746 mmHg 93%
23:00 +10°C° 0 mm 2 m/S 746 mmHg 94%

14 Juli, Dienstag

Zeit Temperatur Niederschläge Wind Luftdruck Luftfeuchtigkeit
00:00 +10°C° 0 mm 2 m/S 746 mmHg 94%
01:00 +10°C° 0 mm 2 m/S 745 mmHg 95%
02:00 +10°C° 0 mm 2 m/S 745 mmHg 96%
03:00 +10°C° 0 mm 2 m/S 745 mmHg 96%
04:00 +9°C° 0 mm 2 m/S 745 mmHg 97%
05:00 +11°C° 0 mm 3 m/S 745 mmHg 90%
06:00 +13°C° 0 mm 3 m/S 745 mmHg 84%
07:00 +15°C° 0 mm 4 m/S 745 mmHg 77%
08:00 +17°C° 0 mm 4 m/S 745 mmHg 72%
09:00 +18°C° 0 mm 4 m/S 745 mmHg 66%
10:00 +20°C° 0 mm 4 m/S 745 mmHg 61%
11:00 +20°C° 0 mm 4 m/S 745 mmHg 59%
12:00 +21°C° 0 mm 5 m/S 745 mmHg 56%
13:00 +21°C° 0 mm 5 m/S 745 mmHg 54%
14:00 +21°C° 0 mm 5 m/S 744 mmHg 56%
15:00 +20°C° 0 mm 5 m/S 744 mmHg 58%
16:00 +20°C° 0 mm 5 m/S 744 mmHg 60%
17:00 +19°C° 0 mm 4 m/S 744 mmHg 67%
18:00 +17°C° 0 mm 4 m/S 744 mmHg 74%
19:00 +16°C° 0 mm 3 m/S 744 mmHg 81%
20:00 +14°C° 0 mm 3 m/S 744 mmHg 86%
21:00 +13°C° 0 mm 3 m/S 744 mmHg 90%
22:00 +11°C° 0 mm 3 m/S 744 mmHg 95%
23:00 +11°C° 0 mm 3 m/S 744 mmHg 94%
Mehr zeigen